Year,Month,Day,Hour,Minute,Value (Times are PST for temperature in C)
2011,08,18,00,00,13.00
2011,08,18,00,01,13.00
2011,08,18,00,02,13.00
2011,08,18,00,03,13.00
2011,08,18,00,04,13.00
2011,08,18,00,05,13.00
2011,08,18,00,06,13.00
2011,08,18,00,07,12.90
2011,08,18,00,08,12.90
2011,08,18,00,09,12.80
2011,08,18,00,10,12.80
2011,08,18,00,11,12.80
2011,08,18,00,12,12.70
2011,08,18,00,13,12.60
2011,08,18,00,14,12.60
2011,08,18,00,15,12.60
2011,08,18,00,16,12.50
2011,08,18,00,17,12.50
2011,08,18,00,18,12.50
2011,08,18,00,19,12.50
2011,08,18,00,20,12.40
2011,08,18,00,21,12.40
2011,08,18,00,22,12.40
2011,08,18,00,23,12.40
2011,08,18,00,24,12.40
2011,08,18,00,25,12.40
2011,08,18,00,26,12.40
2011,08,18,00,27,12.40
2011,08,18,00,28,12.40
2011,08,18,00,29,12.40
2011,08,18,00,30,12.40
2011,08,18,00,31,12.40
2011,08,18,00,32,12.40
2011,08,18,00,33,12.40
2011,08,18,00,34,12.40
2011,08,18,00,35,12.30
2011,08,18,00,36,12.30
2011,08,18,00,37,12.30
2011,08,18,00,38,12.30
2011,08,18,00,39,12.30
2011,08,18,00,40,12.40
2011,08,18,00,41,12.40
2011,08,18,00,42,12.40
2011,08,18,00,43,12.40
2011,08,18,00,44,12.40
2011,08,18,00,45,12.40
2011,08,18,00,46,12.40
2011,08,18,00,47,12.40
2011,08,18,00,48,12.40
2011,08,18,00,49,12.30
2011,08,18,00,50,12.30
2011,08,18,00,51,12.30
2011,08,18,00,52,12.30
2011,08,18,00,53,12.30
2011,08,18,00,54,12.30
2011,08,18,00,55,12.30
2011,08,18,00,56,12.30
2011,08,18,00,57,12.30
2011,08,18,00,58,12.30
2011,08,18,00,59,12.30
2011,08,18,01,00,12.30
2011,08,18,01,01,12.30
2011,08,18,01,02,12.30
2011,08,18,01,03,12.30
2011,08,18,01,04,12.30
2011,08,18,01,05,12.30
2011,08,18,01,06,12.20
2011,08,18,01,07,12.20
2011,08,18,01,08,12.10
2011,08,18,01,09,12.10
2011,08,18,01,10,12.00
2011,08,18,01,11,12.00
2011,08,18,01,12,12.00
2011,08,18,01,13,11.90
2011,08,18,01,14,11.90
2011,08,18,01,15,11.80
2011,08,18,01,16,11.80
2011,08,18,01,17,11.80
2011,08,18,01,18,11.80
2011,08,18,01,19,11.70
2011,08,18,01,20,11.70
2011,08,18,01,21,11.70
2011,08,18,01,22,11.80
2011,08,18,01,23,11.80
2011,08,18,01,24,11.80
2011,08,18,01,25,11.80
2011,08,18,01,26,11.80
2011,08,18,01,27,11.80
2011,08,18,01,28,11.80
2011,08,18,01,29,11.80
2011,08,18,01,30,11.80
2011,08,18,01,31,11.70
2011,08,18,01,32,11.70
2011,08,18,01,33,11.60
2011,08,18,01,34,11.60
2011,08,18,01,35,11.50
2011,08,18,01,36,11.40
2011,08,18,01,37,11.40
2011,08,18,01,38,11.30
2011,08,18,01,39,11.30
2011,08,18,01,40,11.30
2011,08,18,01,41,11.20
2011,08,18,01,42,11.20
2011,08,18,01,43,11.20
2011,08,18,01,44,11.20
2011,08,18,01,45,11.30
2011,08,18,01,46,11.30
2011,08,18,01,47,11.30
2011,08,18,01,48,11.30
2011,08,18,01,49,11.30
2011,08,18,01,50,11.30
2011,08,18,01,51,11.20
2011,08,18,01,52,11.20
2011,08,18,01,53,11.10
2011,08,18,01,54,11.10
2011,08,18,01,55,11.10
2011,08,18,01,56,11.10
2011,08,18,01,57,11.10
2011,08,18,01,58,11.10
2011,08,18,01,59,11.10
2011,08,18,02,00,11.10
2011,08,18,02,01,11.10
2011,08,18,02,02,11.00
2011,08,18,02,03,10.90
2011,08,18,02,04,10.90
2011,08,18,02,05,10.90
2011,08,18,02,06,10.90
2011,08,18,02,07,10.90
2011,08,18,02,08,10.90
2011,08,18,02,09,10.90
2011,08,18,02,10,10.90
2011,08,18,02,11,10.90
2011,08,18,02,12,10.90
2011,08,18,02,13,10.90
2011,08,18,02,14,11.00
2011,08,18,02,15,11.10
2011,08,18,02,16,11.10
2011,08,18,02,17,11.10
2011,08,18,02,18,11.20
2011,08,18,02,19,11.20
2011,08,18,02,20,11.30
2011,08,18,02,21,11.30
2011,08,18,02,22,11.30
2011,08,18,02,23,11.20
2011,08,18,02,24,11.20
2011,08,18,02,25,11.10
2011,08,18,02,26,11.10
2011,08,18,02,27,11.00
2011,08,18,02,28,10.90
2011,08,18,02,29,10.90
2011,08,18,02,30,10.80
2011,08,18,02,31,10.80
2011,08,18,02,32,10.80
2011,08,18,02,33,10.70
2011,08,18,02,34,10.70
2011,08,18,02,35,10.70
2011,08,18,02,36,10.70
2011,08,18,02,37,10.70
2011,08,18,02,38,10.70
2011,08,18,02,39,10.70
2011,08,18,02,40,10.70
2011,08,18,02,41,10.70
2011,08,18,02,42,10.70
2011,08,18,02,43,10.70
2011,08,18,02,44,10.70
2011,08,18,02,45,10.70
2011,08,18,02,46,10.70
2011,08,18,02,47,10.70
2011,08,18,02,48,10.80
2011,08,18,02,49,10.90
2011,08,18,02,50,10.90
2011,08,18,02,51,10.90
2011,08,18,02,52,11.00
2011,08,18,02,53,11.10
2011,08,18,02,54,11.10
2011,08,18,02,55,11.10
2011,08,18,02,56,11.20
2011,08,18,02,57,11.20
2011,08,18,02,58,11.20
2011,08,18,02,59,11.20
2011,08,18,03,00,11.20
2011,08,18,03,01,11.20
2011,08,18,03,02,11.20
2011,08,18,03,03,11.20
2011,08,18,03,04,11.20
2011,08,18,03,05,11.20
2011,08,18,03,06,11.20
2011,08,18,03,07,11.10
2011,08,18,03,08,11.10
2011,08,18,03,09,11.00
2011,08,18,03,10,10.90
2011,08,18,03,11,10.90
2011,08,18,03,12,10.90
2011,08,18,03,13,10.90
2011,08,18,03,14,10.80
2011,08,18,03,15,10.80
2011,08,18,03,16,10.80
2011,08,18,03,17,10.80
2011,08,18,03,18,10.80
2011,08,18,03,19,10.90
2011,08,18,03,20,10.90
2011,08,18,03,21,10.90
2011,08,18,03,22,11.00
2011,08,18,03,23,11.10
2011,08,18,03,24,11.10
2011,08,18,03,25,10.90
2011,08,18,03,26,10.90
2011,08,18,03,27,10.80
2011,08,18,03,28,10.70
2011,08,18,03,29,10.60
2011,08,18,03,30,10.60
2011,08,18,03,31,10.60
2011,08,18,03,32,10.50
2011,08,18,03,33,10.40
2011,08,18,03,34,10.40
2011,08,18,03,35,10.40
2011,08,18,03,36,10.40
2011,08,18,03,37,10.40
2011,08,18,03,38,10.40
2011,08,18,03,39,10.40
2011,08,18,03,40,10.40
2011,08,18,03,41,10.40
2011,08,18,03,42,10.50
2011,08,18,03,43,10.60
2011,08,18,03,44,10.60
2011,08,18,03,45,10.70
2011,08,18,03,46,10.70
2011,08,18,03,47,10.80
2011,08,18,03,48,10.80
2011,08,18,03,49,10.80
2011,08,18,03,50,10.80
2011,08,18,03,51,10.70
2011,08,18,03,52,10.60
2011,08,18,03,53,10.40
2011,08,18,03,54,10.40
2011,08,18,03,55,10.40
2011,08,18,03,56,10.40
2011,08,18,03,57,10.30
2011,08,18,03,58,10.30
2011,08,18,03,59,10.30
2011,08,18,04,00,10.20
2011,08,18,04,01,10.20
2011,08,18,04,02,10.20
2011,08,18,04,03,10.20
2011,08,18,04,04,10.20
2011,08,18,04,05,10.20
2011,08,18,04,06,10.30
2011,08,18,04,07,10.30
2011,08,18,04,08,10.30
2011,08,18,04,09,10.30
2011,08,18,04,10,10.30
2011,08,18,04,11,10.30
2011,08,18,04,12,10.30
2011,08,18,04,13,10.30
2011,08,18,04,14,10.30
2011,08,18,04,15,10.30
2011,08,18,04,16,10.30
2011,08,18,04,17,10.30
2011,08,18,04,18,10.30
2011,08,18,04,19,10.30
2011,08,18,04,20,10.30
2011,08,18,04,21,10.30
2011,08,18,04,22,10.30
2011,08,18,04,23,10.30
2011,08,18,04,24,10.20
2011,08,18,04,25,10.20
2011,08,18,04,26,10.10
2011,08,18,04,27,10.10
2011,08,18,04,28,10.10
2011,08,18,04,29,10.10
2011,08,18,04,30,10.10
2011,08,18,04,31,10.10
2011,08,18,04,32,10.10
2011,08,18,04,33,10.10
2011,08,18,04,34,10.10
2011,08,18,04,35,10.10
2011,08,18,04,36,10.00
2011,08,18,04,37,9.90
2011,08,18,04,38,9.90
2011,08,18,04,39,9.90
2011,08,18,04,40,9.90
2011,08,18,04,41,9.90
2011,08,18,04,42,9.90
2011,08,18,04,43,9.90
2011,08,18,04,44,9.90
2011,08,18,04,45,9.90
2011,08,18,04,46,9.90
2011,08,18,04,47,9.90
2011,08,18,04,48,9.90
2011,08,18,04,49,9.80
2011,08,18,04,50,9.80
2011,08,18,04,51,9.80
2011,08,18,04,52,9.80
2011,08,18,04,53,9.80
2011,08,18,04,54,9.80
2011,08,18,04,55,9.80
2011,08,18,04,56,9.80
2011,08,18,04,57,9.90
2011,08,18,04,58,9.90
2011,08,18,04,59,9.90
2011,08,18,05,00,9.90
2011,08,18,05,01,9.90
2011,08,18,05,02,10.00
2011,08,18,05,03,10.10
2011,08,18,05,04,10.10
2011,08,18,05,05,10.10
2011,08,18,05,06,10.10
2011,08,18,05,07,10.10
2011,08,18,05,08,10.00
2011,08,18,05,09,9.90
2011,08,18,05,10,9.90
2011,08,18,05,11,9.80
2011,08,18,05,12,9.80
2011,08,18,05,13,9.70
2011,08,18,05,14,9.70
2011,08,18,05,15,9.70
2011,08,18,05,16,9.70
2011,08,18,05,17,9.70
2011,08,18,05,18,9.70
2011,08,18,05,19,9.70
2011,08,18,05,20,9.70
2011,08,18,05,21,9.70
2011,08,18,05,22,9.70
2011,08,18,05,23,9.70
2011,08,18,05,24,9.70
2011,08,18,05,25,9.60
2011,08,18,05,26,9.60
2011,08,18,05,27,9.60
2011,08,18,05,28,9.60
2011,08,18,05,29,9.60
2011,08,18,05,30,9.70
2011,08,18,05,31,9.70
2011,08,18,05,32,9.70
2011,08,18,05,33,9.70
2011,08,18,05,34,9.70
2011,08,18,05,35,9.70
2011,08,18,05,36,9.70
2011,08,18,05,37,9.70
2011,08,18,05,38,9.70
2011,08,18,05,39,9.70
2011,08,18,05,40,9.70
2011,08,18,05,41,9.70
2011,08,18,05,42,9.70
2011,08,18,05,43,9.70
2011,08,18,05,44,9.70
2011,08,18,05,45,9.70
2011,08,18,05,46,9.70
2011,08,18,05,47,9.70
2011,08,18,05,48,9.60
2011,08,18,05,49,9.50
2011,08,18,05,50,9.40
2011,08,18,05,51,9.30
2011,08,18,05,52,9.20
2011,08,18,05,53,9.20
2011,08,18,05,54,9.20
2011,08,18,05,55,9.20
2011,08,18,05,56,9.20
2011,08,18,05,57,9.20
2011,08,18,05,58,9.20
2011,08,18,05,59,9.20
2011,08,18,06,00,9.20
2011,08,18,06,01,9.20
2011,08,18,06,02,9.10
2011,08,18,06,03,9.00
2011,08,18,06,04,9.00
2011,08,18,06,05,9.00
2011,08,18,06,06,8.90
2011,08,18,06,07,8.90
2011,08,18,06,08,8.90
2011,08,18,06,09,8.90
2011,08,18,06,10,8.90
2011,08,18,06,11,8.90
2011,08,18,06,12,8.90
2011,08,18,06,13,8.90
2011,08,18,06,14,8.90
2011,08,18,06,15,8.90
2011,08,18,06,16,8.90
2011,08,18,06,17,8.90
2011,08,18,06,18,9.00
2011,08,18,06,19,9.00
2011,08,18,06,20,9.00
2011,08,18,06,21,9.00
2011,08,18,06,22,9.00
2011,08,18,06,23,9.00
2011,08,18,06,24,9.00
2011,08,18,06,25,9.00
2011,08,18,06,26,9.00
2011,08,18,06,27,9.00
2011,08,18,06,28,9.10
2011,08,18,06,29,9.20
2011,08,18,06,30,9.20
2011,08,18,06,31,9.20
2011,08,18,06,32,9.20
2011,08,18,06,33,9.20
2011,08,18,06,34,9.30
2011,08,18,06,35,9.30
2011,08,18,06,36,9.30
2011,08,18,06,37,9.30
2011,08,18,06,38,9.30
2011,08,18,06,39,9.40
2011,08,18,06,40,9.40
2011,08,18,06,41,9.40
2011,08,18,06,42,9.40
2011,08,18,06,43,9.50
2011,08,18,06,44,9.50
2011,08,18,06,45,9.50
2011,08,18,06,46,9.50
2011,08,18,06,47,9.50
2011,08,18,06,48,9.50
2011,08,18,06,49,9.50
2011,08,18,06,50,9.60
2011,08,18,06,51,9.60
2011,08,18,06,52,9.60
2011,08,18,06,53,9.70
2011,08,18,06,54,9.70
2011,08,18,06,55,9.70
2011,08,18,06,56,9.70
2011,08,18,06,57,9.70
2011,08,18,06,58,9.70
2011,08,18,06,59,9.70
2011,08,18,07,00,9.70
2011,08,18,07,01,9.70
2011,08,18,07,02,9.70
2011,08,18,07,03,9.70
2011,08,18,07,04,9.70
2011,08,18,07,05,9.70
2011,08,18,07,06,9.70
2011,08,18,07,07,9.70
2011,08,18,07,08,9.80
2011,08,18,07,09,9.80
2011,08,18,07,10,9.80
2011,08,18,07,11,9.90
2011,08,18,07,12,9.90
2011,08,18,07,13,9.90
2011,08,18,07,14,10.00
2011,08,18,07,15,10.10
2011,08,18,07,16,10.10
2011,08,18,07,17,10.20
2011,08,18,07,18,10.20
2011,08,18,07,19,10.30
2011,08,18,07,20,10.30
2011,08,18,07,21,10.40
2011,08,18,07,22,10.40
2011,08,18,07,23,10.40
2011,08,18,07,24,10.40
2011,08,18,07,25,10.50
2011,08,18,07,26,10.60
2011,08,18,07,27,10.60
2011,08,18,07,28,10.70
2011,08,18,07,29,10.80
2011,08,18,07,30,10.80
2011,08,18,07,31,10.90
2011,08,18,07,32,11.00
2011,08,18,07,33,11.10
2011,08,18,07,34,11.20
2011,08,18,07,35,11.30
2011,08,18,07,36,11.40
2011,08,18,07,37,11.50
2011,08,18,07,38,11.60
2011,08,18,07,39,11.60
2011,08,18,07,40,11.70
2011,08,18,07,41,11.70
2011,08,18,07,42,11.80
2011,08,18,07,43,11.80
2011,08,18,07,44,11.90
2011,08,18,07,45,12.00
2011,08,18,07,46,12.00
2011,08,18,07,47,12.10
2011,08,18,07,48,12.10
2011,08,18,07,49,12.20
2011,08,18,07,50,12.20
2011,08,18,07,51,12.30
2011,08,18,07,52,12.30
2011,08,18,07,53,12.30
2011,08,18,07,54,12.30
2011,08,18,07,55,12.40
2011,08,18,07,56,12.40
2011,08,18,07,57,12.40
2011,08,18,07,58,12.50
2011,08,18,07,59,12.50
2011,08,18,08,00,12.60
2011,08,18,08,01,12.70
2011,08,18,08,02,12.70
2011,08,18,08,03,12.80
2011,08,18,08,04,12.80
2011,08,18,08,05,12.80
2011,08,18,08,06,12.90
2011,08,18,08,07,13.00
2011,08,18,08,08,13.10
2011,08,18,08,09,13.10
2011,08,18,08,10,13.20
2011,08,18,08,11,13.20
2011,08,18,08,12,13.30
2011,08,18,08,13,13.30
2011,08,18,08,14,13.40
2011,08,18,08,15,13.50
2011,08,18,08,16,13.50
2011,08,18,08,17,13.60
2011,08,18,08,18,13.60
2011,08,18,08,19,13.70
2011,08,18,08,20,13.70
2011,08,18,08,21,13.80
2011,08,18,08,22,13.90
2011,08,18,08,23,13.90
2011,08,18,08,24,14.00
2011,08,18,08,25,14.10
2011,08,18,08,26,14.20
2011,08,18,08,27,14.20
2011,08,18,08,28,14.30
2011,08,18,08,29,14.40
2011,08,18,08,30,14.50
2011,08,18,08,31,14.50
2011,08,18,08,32,14.60
2011,08,18,08,33,14.70
2011,08,18,08,34,14.70
2011,08,18,08,35,14.80
2011,08,18,08,36,14.80
2011,08,18,08,37,14.80
2011,08,18,08,38,14.80
2011,08,18,08,39,14.90
2011,08,18,08,40,15.00
2011,08,18,08,41,15.00
2011,08,18,08,42,15.10
2011,08,18,08,43,15.10
2011,08,18,08,44,15.10
2011,08,18,08,45,15.10
2011,08,18,08,46,15.20
2011,08,18,08,47,15.20
2011,08,18,08,48,15.20
2011,08,18,08,49,15.30
2011,08,18,08,50,15.30
2011,08,18,08,51,15.30
2011,08,18,08,52,15.30
2011,08,18,08,53,15.30
2011,08,18,08,54,15.30
2011,08,18,08,55,15.30
2011,08,18,08,56,15.30
2011,08,18,08,57,15.30
2011,08,18,08,58,15.30
2011,08,18,08,59,15.30
2011,08,18,09,00,15.30
2011,08,18,09,01,15.30
2011,08,18,09,02,15.20
2011,08,18,09,03,15.10
2011,08,18,09,04,15.00
2011,08,18,09,05,14.90
2011,08,18,09,06,14.90
2011,08,18,09,07,14.80
2011,08,18,09,08,14.80
2011,08,18,09,09,14.80
2011,08,18,09,10,14.80
2011,08,18,09,11,14.80
2011,08,18,09,12,14.80
2011,08,18,09,13,14.80
2011,08,18,09,14,14.80
2011,08,18,09,15,14.90
2011,08,18,09,16,14.90
2011,08,18,09,17,15.00
2011,08,18,09,18,15.00
2011,08,18,09,19,15.10
2011,08,18,09,20,15.10
2011,08,18,09,21,15.10
2011,08,18,09,22,15.10
2011,08,18,09,23,15.20
2011,08,18,09,24,15.20
2011,08,18,09,25,15.20
2011,08,18,09,26,15.20
2011,08,18,09,27,15.20
2011,08,18,09,28,15.20
2011,08,18,09,29,15.10
2011,08,18,09,30,15.10
2011,08,18,09,31,15.00
2011,08,18,09,32,15.00
2011,08,18,09,33,14.90
2011,08,18,09,34,14.90
2011,08,18,09,35,14.80
2011,08,18,09,36,14.80
2011,08,18,09,37,14.80
2011,08,18,09,38,14.80
2011,08,18,09,39,14.80
2011,08,18,09,40,14.70
2011,08,18,09,41,14.70
2011,08,18,09,42,14.60
2011,08,18,09,43,14.60
2011,08,18,09,44,14.60
2011,08,18,09,45,14.70
2011,08,18,09,46,14.70
2011,08,18,09,47,14.70
2011,08,18,09,48,14.70
2011,08,18,09,49,14.70
2011,08,18,09,50,14.60
2011,08,18,09,51,14.60
2011,08,18,09,52,14.60
2011,08,18,09,53,14.50
2011,08,18,09,54,14.50
2011,08,18,09,55,14.50
2011,08,18,09,56,14.50
2011,08,18,09,57,14.60
2011,08,18,09,58,14.60
2011,08,18,09,59,14.60
2011,08,18,10,00,14.70
2011,08,18,10,01,14.70
2011,08,18,10,02,14.80
2011,08,18,10,03,14.80
2011,08,18,10,04,14.80
2011,08,18,10,05,14.80
2011,08,18,10,06,14.80
2011,08,18,10,07,14.80
2011,08,18,10,08,14.90
2011,08,18,10,09,14.90
2011,08,18,10,10,15.00
2011,08,18,10,11,15.00
2011,08,18,10,12,15.10
2011,08,18,10,13,15.10
2011,08,18,10,14,15.20
2011,08,18,10,15,15.20
2011,08,18,10,16,15.30
2011,08,18,10,17,15.30
2011,08,18,10,18,15.30
2011,08,18,10,19,15.30
2011,08,18,10,20,15.30
2011,08,18,10,21,15.30
2011,08,18,10,22,15.30
2011,08,18,10,23,15.30
2011,08,18,10,24,15.30
2011,08,18,10,25,15.30
2011,08,18,10,26,15.30
2011,08,18,10,27,15.30
2011,08,18,10,28,15.30
2011,08,18,10,29,15.30
2011,08,18,10,30,15.30
2011,08,18,10,31,15.40
2011,08,18,10,32,15.40
2011,08,18,10,33,15.40
2011,08,18,10,34,15.30
2011,08,18,10,35,15.40
2011,08,18,10,36,15.40
2011,08,18,10,37,15.50
2011,08,18,10,38,15.50
2011,08,18,10,39,15.60
2011,08,18,10,40,15.70
2011,08,18,10,41,15.70
2011,08,18,10,42,15.80
2011,08,18,10,43,15.90
2011,08,18,10,44,16.00
2011,08,18,10,45,16.10
2011,08,18,10,46,16.20
2011,08,18,10,47,16.30
2011,08,18,10,48,16.40
2011,08,18,10,49,16.50
2011,08,18,10,50,16.70
2011,08,18,10,51,16.70
2011,08,18,10,52,16.90
2011,08,18,10,53,16.90
2011,08,18,10,54,17.00
2011,08,18,10,55,17.00
2011,08,18,10,56,17.00
2011,08,18,10,57,17.00
2011,08,18,10,58,17.00
2011,08,18,10,59,17.10
2011,08,18,11,00,17.10
2011,08,18,11,01,17.10
2011,08,18,11,02,17.10
2011,08,18,11,03,17.10
2011,08,18,11,04,17.00
2011,08,18,11,05,17.00
2011,08,18,11,06,17.00
2011,08,18,11,07,17.00
2011,08,18,11,08,17.00
2011,08,18,11,09,17.00
2011,08,18,11,10,17.00
2011,08,18,11,11,17.00
2011,08,18,11,12,17.00
2011,08,18,11,13,17.00
2011,08,18,11,14,17.00
2011,08,18,11,15,17.00
2011,08,18,11,16,16.90
2011,08,18,11,17,16.90
2011,08,18,11,18,16.90
2011,08,18,11,19,17.00
2011,08,18,11,20,17.00
2011,08,18,11,21,17.00
2011,08,18,11,22,17.00
2011,08,18,11,23,17.00
2011,08,18,11,24,17.00
2011,08,18,11,25,17.00
2011,08,18,11,26,17.10
2011,08,18,11,27,17.10
2011,08,18,11,28,17.10
2011,08,18,11,29,17.20
2011,08,18,11,30,17.20
2011,08,18,11,31,17.30
2011,08,18,11,32,17.30
2011,08,18,11,33,17.30
2011,08,18,11,34,17.30
2011,08,18,11,35,17.30
2011,08,18,11,36,17.30
2011,08,18,11,37,17.30
2011,08,18,11,38,17.30
2011,08,18,11,39,17.30
2011,08,18,11,40,17.30
2011,08,18,11,41,17.30
2011,08,18,11,42,17.30
2011,08,18,11,43,17.40
2011,08,18,11,44,17.40
2011,08,18,11,45,17.50
2011,08,18,11,46,17.60
2011,08,18,11,47,17.70
2011,08,18,11,48,17.70
2011,08,18,11,49,17.70
2011,08,18,11,50,17.70
2011,08,18,11,51,17.70
2011,08,18,11,52,17.70
2011,08,18,11,53,17.70
2011,08,18,11,54,17.70
2011,08,18,11,55,17.70
2011,08,18,11,56,17.80
2011,08,18,11,57,17.80
2011,08,18,11,58,17.80
2011,08,18,11,59,17.90
2011,08,18,12,00,17.90
2011,08,18,12,01,17.90
2011,08,18,12,02,17.90
2011,08,18,12,03,17.90
2011,08,18,12,04,18.00
2011,08,18,12,05,18.10
2011,08,18,12,06,18.10
2011,08,18,12,07,18.10
2011,08,18,12,08,18.20
2011,08,18,12,09,18.20
2011,08,18,12,10,18.30
2011,08,18,12,11,18.30
2011,08,18,12,12,18.50
2011,08,18,12,13,18.60
2011,08,18,12,14,18.70
2011,08,18,12,15,18.80
2011,08,18,12,16,18.90
2011,08,18,12,17,19.00
2011,08,18,12,18,19.10
2011,08,18,12,19,19.10
2011,08,18,12,20,19.10
2011,08,18,12,21,19.10
2011,08,18,12,22,19.10
2011,08,18,12,23,19.10
2011,08,18,12,24,19.10
2011,08,18,12,25,19.10
2011,08,18,12,26,19.10
2011,08,18,12,27,19.10
2011,08,18,12,28,19.10
2011,08,18,12,29,19.10
2011,08,18,12,30,19.10
2011,08,18,12,31,19.10
2011,08,18,12,32,19.30
2011,08,18,12,33,19.40
2011,08,18,12,34,19.40
2011,08,18,12,35,19.40
2011,08,18,12,36,19.40
2011,08,18,12,37,19.40
2011,08,18,12,38,19.50
2011,08,18,12,39,19.60
2011,08,18,12,40,19.80
2011,08,18,12,41,19.90
2011,08,18,12,42,19.90
2011,08,18,12,43,20.00
2011,08,18,12,44,20.20
2011,08,18,12,45,20.20
2011,08,18,12,46,20.30
2011,08,18,12,47,20.40
2011,08,18,12,48,20.40
2011,08,18,12,49,20.30
2011,08,18,12,50,20.20
2011,08,18,12,51,20.20
2011,08,18,12,52,20.20
2011,08,18,12,53,20.20
2011,08,18,12,54,20.20
2011,08,18,12,55,20.20
2011,08,18,12,56,20.20
2011,08,18,12,57,20.20
2011,08,18,12,58,20.10
2011,08,18,12,59,20.00
2011,08,18,13,00,19.90
2011,08,18,13,01,19.80
2011,08,18,13,02,19.70
2011,08,18,13,03,19.50
2011,08,18,13,04,19.40
2011,08,18,13,05,19.40
2011,08,18,13,06,19.40
2011,08,18,13,07,19.40
2011,08,18,13,08,19.30
2011,08,18,13,09,19.20
2011,08,18,13,10,19.30
2011,08,18,13,11,19.30
2011,08,18,13,12,19.40
2011,08,18,13,13,19.40
2011,08,18,13,14,19.40
2011,08,18,13,15,19.30
2011,08,18,13,16,19.20
2011,08,18,13,17,19.20
2011,08,18,13,18,19.30
2011,08,18,13,19,19.30
2011,08,18,13,20,19.30
2011,08,18,13,21,19.40
2011,08,18,13,22,19.40
2011,08,18,13,23,19.40
2011,08,18,13,24,19.60
2011,08,18,13,25,19.70
2011,08,18,13,26,19.80
2011,08,18,13,27,19.90
2011,08,18,13,28,20.10
2011,08,18,13,29,20.30
2011,08,18,13,30,20.50
2011,08,18,13,31,20.60
2011,08,18,13,32,20.70
2011,08,18,13,33,20.90
2011,08,18,13,34,21.00
2011,08,18,13,35,21.10
2011,08,18,13,36,21.00
2011,08,18,13,37,20.90
2011,08,18,13,38,20.70
2011,08,18,13,39,20.60
2011,08,18,13,40,20.40
2011,08,18,13,41,20.30
2011,08,18,13,42,20.20
2011,08,18,13,43,20.20
2011,08,18,13,44,20.20
2011,08,18,13,45,20.20
2011,08,18,13,46,20.20
2011,08,18,13,47,20.20
2011,08,18,13,48,20.20
2011,08,18,13,49,20.20
2011,08,18,13,50,20.10
2011,08,18,13,51,20.00
2011,08,18,13,52,19.90
2011,08,18,13,53,19.80
2011,08,18,13,54,19.70
2011,08,18,13,55,19.70
2011,08,18,13,56,19.60
2011,08,18,13,57,19.60
2011,08,18,13,58,19.60
2011,08,18,13,59,19.60
2011,08,18,14,00,19.60
2011,08,18,14,01,19.70
2011,08,18,14,02,19.80
2011,08,18,14,03,20.00
2011,08,18,14,04,20.10
2011,08,18,14,05,20.20
2011,08,18,14,06,20.30
2011,08,18,14,07,20.30
2011,08,18,14,08,20.30
2011,08,18,14,09,20.20
2011,08,18,14,10,20.30
2011,08,18,14,11,20.30
2011,08,18,14,12,20.30
2011,08,18,14,13,20.30
2011,08,18,14,14,20.30
2011,08,18,14,15,20.30
2011,08,18,14,16,20.30
2011,08,18,14,17,20.30
2011,08,18,14,18,20.30
2011,08,18,14,19,20.30
2011,08,18,14,20,20.30
2011,08,18,14,21,20.30
2011,08,18,14,22,20.30
2011,08,18,14,23,20.30
2011,08,18,14,24,20.40
2011,08,18,14,25,20.50
2011,08,18,14,26,20.50
2011,08,18,14,27,20.60
2011,08,18,14,28,20.70
2011,08,18,14,29,20.70
2011,08,18,14,30,20.80
2011,08,18,14,31,21.00
2011,08,18,14,32,21.10
2011,08,18,14,33,21.30
2011,08,18,14,34,21.30
2011,08,18,14,35,21.30
2011,08,18,14,36,21.40
2011,08,18,14,37,21.40
2011,08,18,14,38,21.30
2011,08,18,14,39,21.40
2011,08,18,14,40,21.40
2011,08,18,14,41,21.40
2011,08,18,14,42,21.50
2011,08,18,14,43,21.60
2011,08,18,14,44,21.60
2011,08,18,14,45,21.60
2011,08,18,14,46,21.60
2011,08,18,14,47,21.70
2011,08,18,14,48,21.70
2011,08,18,14,49,21.70
2011,08,18,14,50,21.80
2011,08,18,14,51,21.90
2011,08,18,14,52,21.90
2011,08,18,14,53,21.70
2011,08,18,14,54,21.60
2011,08,18,14,55,21.50
2011,08,18,14,56,21.40
2011,08,18,14,57,21.30
2011,08,18,14,58,21.20
2011,08,18,14,59,21.20
2011,08,18,15,00,21.10
2011,08,18,15,01,21.10
2011,08,18,15,02,21.10
2011,08,18,15,03,21.10
2011,08,18,15,04,21.10
2011,08,18,15,05,21.10
2011,08,18,15,06,21.10
2011,08,18,15,07,21.10
2011,08,18,15,08,21.20
2011,08,18,15,09,21.30
2011,08,18,15,10,21.30
2011,08,18,15,11,21.40
2011,08,18,15,12,21.40
2011,08,18,15,13,21.50
2011,08,18,15,14,21.60
2011,08,18,15,15,21.60
2011,08,18,15,16,21.50
2011,08,18,15,17,21.30
2011,08,18,15,18,21.30
2011,08,18,15,19,21.30
2011,08,18,15,20,21.30
2011,08,18,15,21,21.40
2011,08,18,15,22,21.30
2011,08,18,15,23,21.30
2011,08,18,15,24,21.30
2011,08,18,15,25,21.50
2011,08,18,15,26,21.60
2011,08,18,15,27,21.60
2011,08,18,15,28,21.70
2011,08,18,15,29,21.80
2011,08,18,15,30,21.90
2011,08,18,15,31,21.90
2011,08,18,15,32,21.80
2011,08,18,15,33,21.70
2011,08,18,15,34,21.60
2011,08,18,15,35,21.60
2011,08,18,15,36,21.60
2011,08,18,15,37,21.60
2011,08,18,15,38,21.60
2011,08,18,15,39,21.60
2011,08,18,15,40,21.60
2011,08,18,15,41,21.50
2011,08,18,15,42,21.40
2011,08,18,15,43,21.30
2011,08,18,15,44,21.30
2011,08,18,15,45,21.30
2011,08,18,15,46,21.30
2011,08,18,15,47,21.30
2011,08,18,15,48,21.30
2011,08,18,15,49,21.30
2011,08,18,15,50,21.30
2011,08,18,15,51,21.20
2011,08,18,15,52,21.20
2011,08,18,15,53,21.30
2011,08,18,15,54,21.30
2011,08,18,15,55,21.30
2011,08,18,15,56,21.40
2011,08,18,15,57,21.40
2011,08,18,15,58,21.40
2011,08,18,15,59,21.30
2011,08,18,16,00,21.30
2011,08,18,16,01,21.30
2011,08,18,16,02,21.30
2011,08,18,16,03,21.40
2011,08,18,16,04,21.40
2011,08,18,16,05,21.30
2011,08,18,16,06,21.30
2011,08,18,16,07,21.30
2011,08,18,16,08,21.30
2011,08,18,16,09,21.30
2011,08,18,16,10,21.30
2011,08,18,16,11,21.30
2011,08,18,16,12,21.30
2011,08,18,16,13,21.30
2011,08,18,16,14,21.30
2011,08,18,16,15,21.30
2011,08,18,16,16,21.30
2011,08,18,16,17,21.20
2011,08,18,16,18,21.20
2011,08,18,16,19,21.30
2011,08,18,16,20,21.30
2011,08,18,16,21,21.30
2011,08,18,16,22,21.30
2011,08,18,16,23,21.30
2011,08,18,16,24,21.30
2011,08,18,16,25,21.30
2011,08,18,16,26,21.30
2011,08,18,16,27,21.30
2011,08,18,16,28,21.30
2011,08,18,16,29,21.30
2011,08,18,16,30,21.30
2011,08,18,16,31,21.30
2011,08,18,16,32,21.20
2011,08,18,16,33,21.20
2011,08,18,16,34,21.10
2011,08,18,16,35,21.20
2011,08,18,16,36,21.20
2011,08,18,16,37,21.20
2011,08,18,16,38,21.30
2011,08,18,16,39,21.20
2011,08,18,16,40,21.20
2011,08,18,16,41,21.30
2011,08,18,16,42,21.30
2011,08,18,16,43,21.30
2011,08,18,16,44,21.30
2011,08,18,16,45,21.30
2011,08,18,16,46,21.30
2011,08,18,16,47,21.30
2011,08,18,16,48,21.30
2011,08,18,16,49,21.30
2011,08,18,16,50,21.30
2011,08,18,16,51,21.40
2011,08,18,16,52,21.40
2011,08,18,16,53,21.30
2011,08,18,16,54,21.30
2011,08,18,16,55,21.30
2011,08,18,16,56,21.20
2011,08,18,16,57,21.20
2011,08,18,16,58,21.20
2011,08,18,16,59,21.20
2011,08,18,17,00,21.10
2011,08,18,17,01,21.10
2011,08,18,17,02,21.00
2011,08,18,17,03,21.00
2011,08,18,17,04,21.00
2011,08,18,17,05,21.00
2011,08,18,17,06,20.90
2011,08,18,17,07,20.90
2011,08,18,17,08,20.90
2011,08,18,17,09,20.90
2011,08,18,17,10,20.90
2011,08,18,17,11,20.80
2011,08,18,17,12,20.80
2011,08,18,17,13,20.70
2011,08,18,17,14,20.70
2011,08,18,17,15,20.70
2011,08,18,17,16,20.70
2011,08,18,17,17,20.70
2011,08,18,17,18,20.60
2011,08,18,17,19,20.60
2011,08,18,17,20,20.60
2011,08,18,17,21,20.60
2011,08,18,17,22,20.50
2011,08,18,17,23,20.50
2011,08,18,17,24,20.40
2011,08,18,17,25,20.40